CZ-6A R/B, 60214

Orbit data source: Space-Track

CZ-6A R/B, 60214 is space debris in SSO originally from a launch on Thu, 04 Jul 2024 UTC launched from the Taiyaun Space Center, China (TSC). Debris objects in space refer to the collection of defunct objects orbiting the Earth. Examples of debris include non-operational satellites, rocket bodies, and fragments generated from explosions, collisions, or faulty payload assembly.

Loading next visibility...
Identifier
60214, 2024-126D
Orbit
SSO
Country
Flag of CNCN / PRC
Related business
Manufacturer
SAST
Mission
Spacecraft
Bus & Motor
CZ-6A STAGE 2, YF-115
Mass
~6,000 kg wet, ~6,000 kg dry
Launch date (UTC)
2024-07-04 (1 year ago)
Launch vehicle
Unknown
Launch site
Taiyaun Space Center, China (TSC)
Object type
Payload
Rocket body
Debris
Shape & HBR
Unknown
Radar Cross Section
Large (>1 m²)

Expand to show TLE details & history
Last TLE update: 15 hours ago

TLE from 15 hours ago
0 CZ-6A R/B
1 60214U 24126D   25242.77566754  .00007007  00000-0  39690-3 0  9994
2 60214  97.8066 262.5602 0072914  35.3579 325.2453 15.11068210 63535
Epoch: 2025-08-30T18:36Z
TLE epoch observation values (Epoch: 2025-08-30T18:36:57.675Z)
Latitude
-0.00006°
Longitude
4.11478°
Altitude
494.717 km
Speed
7.64 km/s
True Right ascension
17h 30m 14s
True Declination
0° 00' 00"
Sunlit
Object was in daylight at epoch
Visualization orbit readout
Latitude
Unknown
Longitude
Unknown
Altitude
Unknown
Speed
Unknown
Apparent Right ascension
Unknown
Apparent Declination
Unknown
Sunlit
N/A
Visualization observer readout
Local Sidereal Time
00:51:22
Azimuth
Unknown
Elevation
Unknown
Doppler factor
Unknown
Orbital elements
Apogee altitude
580.306 km
Perigee altitude
479.567 km
Semi-major axis
6,908.073 km
Eccentricity
0.00729
Inclination
97.8066°
RAAN
262.5602°
Arg. of periapsis
35.3579°
True anomaly
324.76541°
Mean anomaly
325.2453°
Eccentric anomaly
325.00571°
Mean motion
3.78014 °/min
Orbital period
95.23 mins
BSTAR
0.0003969
Loading maneuver chart data...
Computing Atmospheric mass density...
Loading historical data...
Loading historical data...
Loading historical data...
Loading historical data...
Loading historical data...
Loading historical data...
Loading historical data...
Other satellites on launch #126 in the year 2024 (2024-07-04 UTC)

Documentation

Showing up to 5 results
|